www.pogodaiklimat.ru

Погода и климат >> Архив погоды >> Россия >> Томская область >> Томск


АРХИВ ПОГОДЫ в Томске

Время (UTC), дата Ветер
(напр.,м/с)
 
Видим.   Явления Облачность Т
(С)
Тd
(С)
f
(%)
Тe
(С)
Тes
(С)
Комфортность P
(гПа)
Po
(гПа)
Тmin
(С)
Tmax
(С)
R
(мм)
R24
(мм)
S
(см)
18 12.06 В 2 20 км 6/0
[Ac trans]
+19.7 +9.5 52 +21 +21 комфорт 1000.6 984.6
21 12.06 штиль 0 20 км 6/0
[Ac trans]
+15.8 +9.9 68 +16 +16 тепло 1000.4 984.1
00 13.06 штиль 0 20 км 8/0
[Ac trans]
+16.7 +10.9 69 +17 +18 тепло 1000.0 983.8 +14.3
03 13.06 В 1 20 км 6/0
[Ac As Ci fib]
+20.0 +12.3 61 +23 +30 комфорт 999.4 983.4
06 13.06 В 1 20 км 3/3 1000 м
[Cu med, cong]
+24.9 +13.3 48 +27 +40 жарко 998.3 982.6
09 13.06 В 1 20 км 9/3 1000 м
[Cb cap Cs]
+23.1 +12.9 53 +26 +34 жарко 996.8 981.0
12 13.06 В 1 4000 м гроза, ливневой дождь 10/10 700 м
[Cb cap]
+16.2 +14.7 91 +17 +17 прохладно 999.1 982.9 +26.0 0.4
15 13.06 штиль 0 20 км {гроза, ливн. осадки} 3/1 600 м
[Sc diur, vesp Ci fib]
+15.3 +14.3 94 +15 +15 по сезону 997.9 981.7
18 13.06 В 1 20 км {гроза, ливн. осадки} 3/0
[Ac As]
+14.9 +14.1 95 +15 +15 тепло 997.5 981.3
21 13.06 СЗ 1 20 км слаб. ливневой дождь 10/8 300 м
[Cb cap Ac und]
+12.2 +11.0 92 +12 +12 по сезону 999.5 983.1
00 14.06 штиль 0 20 км в посл. час ливневой дождь 9/8 300 м
[Cb cap Ac As]
+11.4 +10.6 95 +11 +11 по сезону 1000.7 984.2 +11.0 7
03 14.06 З 1 20 км 8/5 600 м
[Cb cap Ac trans]
+14.7 +11.0 78 +15 +19 по сезону 1002.6 986.3
06 14.06 ЮЗ 1 20 км 8/5 600 м
[Cb cap Ac trans]
+18.7 +8.7 52 +20 +26 тепло 1002.6 986.5
09 14.06 З 1 20 км 10/10 600 м
[Sc]
+18.0 +7.5 50 +19 +19 по сезону 1003.0 986.8
12 14.06 штиль 0 20 км 8/8 600 м
[Sc]
+17.2 +8.3 56 +17 +18 прохладно 1003.3 987.1 +19.5
15 14.06 штиль 0 20 км 8/5 600 м
[Sc Ac trans]
+14.4 +7.2 62 +14 +14 прохладно 1004.1 987.7
18 14.06 С 1 20 км 9/9 600 м
[Sc]
+12.4 +6.2 66 +13 +13 по сезону 1004.4 987.9
21 14.06 штиль 0 20 км 10/8 600 м
[Sc Ac trans]
+11.7 +5.9 68 +11 +11 по сезону 1005.0 988.4
00 15.06 штиль 0 20 км в посл. час дождь 10/5 600 м
[Sc As op]
+10.7 +8.7 87 +10 +10 по сезону 1005.9 989.3 +10.6 0.0
03 15.06 СЗ 1 20 км 8/0
[Ac trans]
+14.0 +4.8 54 +15 +20 по сезону 1007.0 990.5
06 15.06 СЗ 2 20 км 8/8 800 м
[Sc diur, vesp]
+15.8 +2.7 41 +16 +19 прохладно 1007.5 991.1
09 15.06 СЗ 1 20 км 8/8 600 м
[Sc diur, vesp]
+17.7 +1.4 33 +19 +22 по сезону 1007.6 991.3
12 15.06 С 1 20 км 4/0
[Ac trans]
+18.1 +1.7 33 +19 +22 по сезону 1007.3 991.0 +18.3
15 15.06 С 1 20 км 6/0
[Ac trans]
+13.4 +2.7 48 +14 +14 прохладно 1007.3 990.7
18 15.06 СВ 1 20 км 10/0
[Ci fib]
+11.2 +3.0 57 +11 +11 прохладно 1006.5 989.9
21 15.06 СВ 1 20 км 10/0
[Ci fib]
+10.4 +3.6 63 +10 +10 прохладно 1004.8 988.2
00 16.06 С 1 20 км 8/8 600 м
[Sc diur, vesp]
+11.6 +6.5 71 +12 +12 по сезону 1003.1 986.5 +10.1
03 16.06 штиль 0 20 км слаб. дождь 10/10 400 м
[St]
+12.1 +9.5 84 +12 +12 прохладно 1002.5 986.0
06 16.06 штиль 0 20 км {дождь} 10/10 420 м
[St]
+13.5 +11.5 88 +13 +13 холодно 1001.1 984.7
09 16.06 штиль 0 20 км 10/10 420 м
[St]
+13.8 +12.0 89 +13 +13 очень
холодно
1000.2 983.8
12 16.06 СВ 1 20 км {дождь} 10/10 450 м
[St]
+13.9 +12.5 91 +14 +14 холодно 1000.2 983.9 +14.3 0.5
15 16.06 СВ 1 20 км 10/0
[Ac trans Ci fib]
+13.5 +12.5 94 +14 +14 прохладно 1000.6 984.2
18 16.06 штиль 0 20 км {ливн. осадки} 10/3 1000 м
[Cb cap Ac und]
+12.9 +11.4 91 +12 +12 по сезону 1001.2 984.8
21 16.06 В 1 20 км 10/10 600 м
[Cb cap]
+12.4 +7.8 74 +12 +12 по сезону 1002.6 986.1
00 17.06 З 1 20 км 10/10 300 м
[St]
+9.6 +8.5 93 +9 +9 прохладно 1006.1 989.4 +9.6 0.4
03 17.06 З 1 20 км 9/3 600 м
[Sc Ac As]
+12.2 +8.7 79 +12 +15 прохладно 1009.3 992.7 +9.3
06 17.06 З 2 20 км 6/6 1000 м
[Cu med, cong]
+18.7 +7.4 48 +20 +26 по сезону 1008.9 992.7
09 17.06 З 1 20 км 8/8 1000 м
[Cu med, cong]
+19.6 +6.7 43 +21 +24 комфорт 1007.9 991.7
12 17.06 С 1
{10}
20 км в посл. час ливневой дождь 8/5 1000 м
[Cb cap Ac trans Ci fib]
+15.7 +7.6 59 +16 +18 холодно 1009.2 992.8 +20.3 0.0
15 17.06 ЮВ 2 20 км 3/0
[Ac cuf]
+13.9 +8.2 68 +13 +13 прохладно 1010.0 993.5
18 17.06 В 1 20 км 1/0
[Ac trans]
+12.7 +6.9 68 +13 +13 по сезону 1009.6 993.0
21 17.06 ЮВ 1 20 км 4/0
[Ci fib]
+9.9 +7.2 83 +9 +9 прохладно 1009.0 992.3
00 18.06 ЮВ 1 20 км 8/0
[Ci fib]
+12.6 +6.7 67 +13 +15 по сезону 1008.7 992.1 +9.5
03 18.06 ЮВ 2 20 км 1/0
[Ci fib]
+18.7 +6.9 46 +20 +29 тепло 1007.2 991.0
06 18.06 ЮВ 1 20 км 10/0
[Ac trans Cc]
+21.7 +5.8 36 +22 +33 комфорт 1004.1 988.1
09 18.06 штиль 0 20 км слаб. ливневой дождь 10/10 480 м
[Cb cap]
+16.9 +11.4 70 +17 +17 прохладно 1004.1 987.9
12 18.06 В 1 20 км слаб. ливневой дождь 10/10 540 м
[Cb cap]
+14.2 +12.6 90 +14 +14 холодно 1002.7 986.3 +22.4 3
15 18.06 В 3
{10}
20 км {ливн. осадки} 10/5 600 м
[Sc Ac trans]
+15.0 +12.0 82 +14 +14 прохладно 1001.0 984.7
18 18.06 ЮВ 2 20 км {ливн. осадки} 10/0
[As op]
+14.8 +11.7 82 +14 +14 по сезону 999.7 983.4
21 18.06 В 1 20 км слаб. дождь 10/8 500 м
[Sc As op]
+14.2 +12.0 87 +15 +15 тепло 998.9 982.6
00 19.06 В 1 20 км {ливн. осадки, дождь} 9/9 480 м
[Cb cap]
+13.5 +12.3 92 +14 +14 по сезону 1000.1 983.7 +13.3 2
03 19.06 СВ 1 20 км 10/10 480 м
[Cb cap]
+13.6 +11.0 84 +14 +14 прохладно 1002.2 985.8 +12.8
06 19.06 З 1 20 км {ливн. осадки} 8/8 800 м
[Cb cap]
+14.5 +8.5 67 +15 +19 холодно 1005.2 988.8
09 19.06 ЮЗ 1 20 км {ливн. осадки} 8/8 800 м
[Cb cap]
+16.9 +9.2 60 +18 +21 прохладно 1007.7 991.4
12 19.06 З 1 20 км {ливн. осадки} 4/0
[Ac trans]
+17.7 +6.6 48 +19 +22 прохладно 1009.3 993.0 +18.7 0.3
15 19.06 штиль 0 20 км ясно +11.8 +7.6 75 +11 +11 холодно 1011.8 995.2

 

Местоположение метеостанции Томск (Томская область, Россия): широта 56.50 долгота 84.92 высота над уровнем моря 139 м.

В архиве по умолчанию представлена погода в Томске за последнюю неделю. Архивные данные за месяц целиком и за предыдущие месяцы, начиная с января 2011 года, Вы можете получить, выбрав интересующий диапазон дат из раскрывающегося списка и нажав кнопку "Ввод!".


*Определитесь, кто Вы:
робот инопланетянин человек

Внимание! Время в таблицах - всемирное. Для получения местного времени необходимо прибавить поправку, которая равна 7 ч.

Смотрите также архив погоды в соседних городах и на ближайших метеорологических станциях:

Погода в Тайге (Кемеровская область, Россия) (64 км)
Погода в Кожевниково (Томская область, Россия) (65 км)
Погода в Юрге (Кемеровская область, Россия) (87 км)
Погода в Болотном (Новосибирская область, Россия) (98 км)
Погода в Яе (Кемеровская область, Россия) (101 км)
Погода в Первомайском (Томская область, Россия) (101 км)
Погода в Барзасе (Кемеровская область, Россия) (122 км)
Погода в Молчаново (Томская область, Россия) (139 км)
Погода в Батурино (Томская область, Россия) (143 км)
Погода в Топках (Кемеровская область, Россия) (143 км)

Пояснения к столбцам:

Ветер - указаны скорость ветра в м/с - средняя за 10 мин, порывы в срок и между сроками (в фигурных скобках) и направление, откуда дует ветер: С - северный, СВ - северо-восточный, В - восточный, ЮВ - юго-восточный, Ю - южный, ЮЗ - юго-западный, З - западный, СЗ - северо-западный.
Видимость - горизонтальная дальность видимости в метрах или километрах. При видимости от 1 до 10 км при отсутствии осадков обычно наблюдается дымка, при ухудшении видимости до 1 км и менее - туман. В сухую погоду видимость может ухудшаться дымом, пылью или мглою.
Явления - указаны атмосферные явления, наблюдавшиеся в срок или в последний час перед сроком; фигурными скобками обозначены явления, наблюдавшиеся между сроками (за 1-3 часа до срока); квадратными скобками обозначены град или гололедные отложения с указанием их диаметра в мм.
Облачность - указаны через наклонную черту общая и нижняя облачность в баллах и высота нижней границы облаков в метрах; квадратными скобками обозначены формы облаков: Ci - перистые, Cs - перисто-слоистые, Cc - перисто-кучевые, Ac - высококучевые, As - высокослоистые, Sc - слоисто-кучевые, Ns - слоисто-дождевые, Cu - кучевые, Cb - кучево-дождевые. Подробнее классификацию облаков см. в Атласе облаков (PDF).
T - Температура воздуха - температура, измеренная на высоте 2 м над землей.
Td - Температура точки росы - температура, при понижении до которой содержащийся в воздухе водяной пар достигнет насыщения.
f - Относительная влажность воздуха - влажноcть воздуха, измеренная на высоте 2 м над землей.
Te - Эффективная температура - температура, которую ощущает одетый по сезону человек в тени. Характеристика душности погоды. При расчете учитывается влияние влажности воздуха и скорости ветра на теплоощущения человека.
Tes - Эффективная температура на солнце - температура, которую ощущает человек, с поправкой на солнечный нагрев. Характеристика знойности погоды. Зависит от высоты солнца над горизонтом, облачности и скорости ветра. Ночью, в пасмурную погоду, а также при ветре 12 м/с и более поправка равна нулю.
P - Атмосферное давление - приведенное к уровню моря атмосферное давление.
Po - Атмосферное давление - измеренное на уровне метеостанции атмосферное давление.
Tmin - Минимальная температура - минимум температуры воздуха на высоте 2 м над землей.
Tmax - Максимальная температура - максимум температуры воздуха на высоте 2 м над землей.
R - Количество осадков - Количество выпавших осадков за период времени, мм. При наведении курсора мыши на число - период времени, за который выпало указанное количество осадков.
R24 - Количество осадков - Количество выпавших осадков за 24 часа, мм.
S - Снежный покров - Высота снежного покрова, см. При наведении курсора мыши на число - состояние снежного покрова и степень покрытия местности в баллах.